| time (UTC) | temp C | wind direction | speed KPH | gust KPH | rain 1hr cm | rain 24hr cm | rain mn cm | humidity % | barometer mb |
| 20260505054257 | 15 | 0 | 0.0 | 1.6 | 0.00 | 0.03 | 0.03 | 73 | 1004.0 |
| 20260505053755 | 15 | 350 | 1.6 | 1.6 | 0.00 | 0.03 | 0.03 | 75 | 1004.2 |
| 20260505053252 | 15 | 17 | 1.6 | 3.2 | 0.00 | 0.03 | 0.03 | 77 | 1004.0 |
| 20260505052749 | 15 | 8 | 1.6 | 3.2 | 0.00 | 0.03 | 0.03 | 75 | 1003.9 |
| 20260505052246 | 15 | 8 | 1.6 | 3.2 | 0.00 | 0.03 | 0.03 | 74 | 1004.1 |
| 20260505051743 | 15 | 17 | 3.2 | 3.2 | 0.13 | 0.03 | 0.03 | 73 | 1003.9 |
| 20260505051241 | 16 | 351 | 3.2 | 4.8 | 0.13 | 0.03 | 0.03 | 71 | 1003.7 |
| 20260505050738 | 18 | 48 | 11.3 | 22.5 | 0.00 | 0.00 | 0.00 | 57 | 1003.9 |
| 20260505050237 | 20 | 343 | 4.8 | 4.8 | 0.00 | 0.00 | 0.00 | 48 | 1003.7 |
| 20260505041706 | 21 | 9 | 1.6 | 1.6 | 0.00 | 0.00 | 0.00 | 72 | 1002.2 |
| 20260505041204 | 21 | 273 | 1.6 | 1.6 | 0.00 | 0.00 | 0.00 | 71 | 1002.2 |
| 20260505040701 | 21 | 99 | 4.8 | 4.8 | 0.00 | 0.00 | 0.00 | 72 | 1002.0 |
| 20260505040158 | 21 | 45 | 1.6 | 3.2 | 0.00 | 0.00 | 0.00 | 72 | 1002.1 |
| 20260505035654 | 21 | 67 | 0.0 | 1.6 | 0.00 | 0.00 | 0.00 | 71 | 1002.4 |
| 20260505035151 | 21 | 49 | 1.6 | 3.2 | 0.00 | 0.00 | 0.00 | 71 | 1002.5 |
| 20260505034647 | 21 | 115 | 1.6 | 1.6 | 0.00 | 0.00 | 0.00 | 71 | 1002.3 |
| 20260505034145 | 22 | 47 | 0.0 | 1.6 | 0.00 | 0.00 | 0.00 | 70 | 1002.5 |
| 20260505033641 | 22 | 174 | 1.6 | 1.6 | 0.00 | 0.00 | 0.00 | 70 | 1002.4 |
| 20260505033139 | 22 | 178 | 4.8 | 4.8 | 0.00 | 0.00 | 0.00 | 70 | 1002.3 |
| 20260505032637 | 22 | 92 | 1.6 | 1.6 | 0.00 | 0.00 | 0.00 | 69 | 1002.5 |
| 20260505032133 | 22 | 158 | 1.6 | 1.6 | 0.00 | 0.00 | 0.00 | 68 | 1002.4 |
| 20260505031630 | 22 | 35 | 0.0 | 0.0 | 0.00 | 0.00 | 0.00 | 67 | 1002.1 |
| 20260505031126 | 22 | 45 | 0.0 | 0.0 | 0.00 | 0.00 | 0.00 | 66 | 1002.3 |
| 20260505030624 | 22 | 41 | 0.0 | 1.6 | 0.00 | 0.00 | 0.00 | 65 | 1002.0 |
| 20260505030119 | 22 | 52 | 0.0 | 1.6 | 0.00 | 0.00 | 0.00 | 64 | 1002.1 |
| 20260505025615 | 22 | 199 | 1.6 | 3.2 | 0.00 | 0.00 | 0.00 | 63 | 1001.9 |
| 20260505025114 | 23 | 47 | 0.0 | 1.6 | 0.00 | 0.00 | 0.00 | 63 | 1002.2 |
| 20260505024611 | 23 | 261 | 1.6 | 1.6 | 0.00 | 0.00 | 0.00 | 62 | 1002.1 |
| 20260505024108 | 23 | 154 | 1.6 | 3.2 | 0.00 | 0.00 | 0.00 | 62 | 1001.9 |
| 20260505023606 | 22 | 202 | 1.6 | 3.2 | 0.00 | 0.00 | 0.00 | 61 | 1001.7 |
| 20260505023103 | 22 | 85 | 1.6 | 1.6 | 0.00 | 0.00 | 0.00 | 60 | 1001.8 |
| 20260505022600 | 22 | 46 | 0.0 | 0.0 | 0.00 | 0.00 | 0.00 | 59 | 1001.9 |
| 20260505022057 | 22 | 43 | 0.0 | 0.0 | 0.00 | 0.00 | 0.00 | 59 | 1001.7 |
| 20260505021554 | 22 | 42 | 0.0 | 0.0 | 0.00 | 0.00 | 0.00 | 58 | 1001.3 |
| 20260505021051 | 22 | 59 | 0.0 | 1.6 | 0.00 | 0.00 | 0.00 | 58 | 1001.4 |
| 20260505020550 | 22 | 48 | 0.0 | 0.0 | 0.00 | 0.00 | 0.00 | 58 | 1001.4 |
| 20260505020048 | 22 | 40 | 0.0 | 0.0 | 0.00 | 0.00 | 0.00 | 58 | 1001.1 |
| 20260505015545 | 22 | 45 | 0.0 | 0.0 | 0.00 | 0.00 | 0.00 | 57 | 1001.3 |
| 20260505015041 | 22 | 74 | 0.0 | 1.6 | 0.00 | 0.00 | 0.00 | 58 | 1001.0 |
| 20260505014538 | 23 | 54 | 1.6 | 1.6 | 0.00 | 0.00 | 0.00 | 58 | 1001.3 |
| 20260505014035 | 23 | 51 | 0.0 | 0.0 | 0.00 | 0.00 | 0.00 | 56 | 1001.0 |
| 20260505013532 | 23 | 70 | 1.6 | 1.6 | 0.00 | 0.00 | 0.00 | 55 | 1000.9 |
| 20260505013030 | 23 | 52 | 0.0 | 0.0 | 0.00 | 0.00 | 0.00 | 55 | 1001.0 |
| 20260505012528 | 24 | 49 | 0.0 | 1.6 | 0.00 | 0.00 | 0.00 | 52 | 1001.0 |
| 20260505012025 | 25 | 41 | 0.0 | 0.0 | 0.00 | 0.00 | 0.00 | 51 | 1000.9 |
| 20260505011520 | 25 | 23 | 0.0 | 0.0 | 0.00 | 0.00 | 0.00 | 51 | 1001.0 |
| 20260505011017 | 25 | 11 | 0.0 | 1.6 | 0.00 | 0.00 | 0.00 | 51 | 1001.0 |
| 20260505010512 | 25 | 172 | 1.6 | 3.2 | 0.00 | 0.00 | 0.00 | 50 | 1000.7 |
| 20260505010010 | 25 | 31 | 0.0 | 0.0 | 0.00 | 0.00 | 0.00 | 51 | 1000.7 |
| 20260505005506 | 25 | 328 | 1.6 | 1.6 | 0.00 | 0.00 | 0.00 | 50 | 1000.6 |
| 20260505005004 | 25 | 346 | 1.6 | 1.6 | 0.00 | 0.00 | 0.00 | 49 | 1000.3 |
| 20260505004501 | 26 | 9 | 0.0 | 0.0 | 0.00 | 0.00 | 0.00 | 49 | 1000.3 |
| 20260505003957 | 26 | 252 | 1.6 | 1.6 | 0.00 | 0.00 | 0.00 | 49 | 1000.3 |
| 20260505003455 | 26 | 248 | 3.2 | 3.2 | 0.00 | 0.00 | 0.00 | 48 | 1000.3 |
| 20260505002950 | 26 | 210 | 1.6 | 1.6 | 0.00 | 0.00 | 0.00 | 48 | 1000.2 |
| 20260505002446 | 26 | 349 | 0.0 | 1.6 | 0.00 | 0.00 | 0.00 | 48 | 1000.1 |
| 20260505001945 | 26 | 40 | 3.2 | 3.2 | 0.00 | 0.00 | 0.00 | 48 | 1000.2 |
| 20260505001442 | 26 | 215 | 1.6 | 3.2 | 0.00 | 0.00 | 0.00 | 48 | 1000.4 |
| 20260505000939 | 26 | 54 | 0.0 | 0.0 | 0.00 | 0.00 | 0.00 | 48 | 1000.2 |
| 20260505000437 | 26 | 18 | 0.0 | 1.6 | 0.00 | 0.00 | 0.00 | 49 | 1000.0 |
| 20260504235934 | 26 | 213 | 1.6 | 1.6 | 0.00 | 0.00 | 0.00 | 48 | 1000.2 |
| 20260504235431 | 26 | 332 | 0.0 | 0.0 | 0.00 | 0.00 | 0.00 | 47 | 1000.1 |
| 20260504234927 | 26 | 0 | 1.6 | 3.2 | 0.00 | 0.00 | 0.00 | 47 | 1000.2 |
| 20260504234425 | 26 | 0 | 1.6 | 3.2 | 0.00 | 0.00 | 0.00 | 46 | 1000.2 |
| 20260504233921 | 26 | 230 | 1.6 | 1.6 | 0.00 | 0.00 | 0.00 | 47 | 1000.2 |
| 20260504233417 | 26 | 274 | 3.2 | 3.2 | 0.00 | 0.00 | 0.00 | 46 | 1000.2 |
| 20260504232914 | 26 | 259 | 1.6 | 3.2 | 0.00 | 0.00 | 0.00 | 46 | 1000.3 |
| 20260504232411 | 26 | 192 | 1.6 | 1.6 | 0.00 | 0.00 | 0.00 | 47 | 1000.2 |
| 20260504231908 | 26 | 107 | 0.0 | 1.6 | 0.00 | 0.00 | 0.00 | 47 | 1000.4 |
| 20260504231404 | 26 | 319 | 3.2 | 3.2 | 0.00 | 0.00 | 0.00 | 46 | 1000.1 |
| 20260504230901 | 27 | 222 | 1.6 | 3.2 | 0.00 | 0.00 | 0.00 | 46 | 1000.2 |
| 20260504230358 | 27 | 162 | 4.8 | 8.0 | 0.00 | 0.00 | 0.00 | 45 | 1000.4 |
| 20260504225857 | 27 | 115 | 1.6 | 1.6 | 0.00 | 0.00 | 0.00 | 45 | 1000.2 |
| 20260504225353 | 27 | 8 | 0.0 | 1.6 | 0.00 | 0.00 | 0.00 | 45 | 1000.2 |
| 20260504224851 | 27 | 239 | 3.2 | 4.8 | 0.00 | 0.00 | 0.00 | 45 | 1000.2 |
| 20260504224347 | 27 | 325 | 0.0 | 1.6 | 0.00 | 0.00 | 0.00 | 46 | 1000.4 |
| 20260504223844 | 27 | 221 | 3.2 | 3.2 | 0.00 | 0.00 | 0.00 | 45 | 1000.1 |
| 20260504223339 | 27 | 278 | 3.2 | 3.2 | 0.00 | 0.00 | 0.00 | 45 | 1000.3 |
| 20260504222836 | 27 | 32 | 0.0 | 0.0 | 0.00 | 0.00 | 0.00 | 44 | 1000.4 |
| 20260504222333 | 27 | 22 | 0.0 | 0.0 | 0.00 | 0.00 | 0.00 | 44 | 1000.4 |
| 20260504221832 | 26 | 245 | 3.2 | 4.8 | 0.00 | 0.00 | 0.00 | 45 | 1000.5 |
| 20260504221328 | 27 | 99 | 1.6 | 1.6 | 0.00 | 0.00 | 0.00 | 45 | 1000.4 |
| 20260504220825 | 27 | 344 | 0.0 | 1.6 | 0.00 | 0.00 | 0.00 | 44 | 1000.3 |
| 20260504220322 | 27 | 19 | 0.0 | 0.0 | 0.00 | 0.00 | 0.00 | 43 | 1000.5 |
| 20260504215819 | 26 | 239 | 1.6 | 4.8 | 0.00 | 0.00 | 0.00 | 43 | 1000.4 |
| 20260504215315 | 26 | 242 | 3.2 | 3.2 | 0.00 | 0.00 | 0.00 | 42 | 1000.5 |
| 20260504214811 | 27 | 244 | 4.8 | 4.8 | 0.00 | 0.00 | 0.00 | 43 | 1000.8 |
| 20260504214309 | 26 | 340 | 1.6 | 3.2 | 0.00 | 0.00 | 0.00 | 46 | 1000.7 |
| 20260504213805 | 27 | 221 | 3.2 | 3.2 | 0.00 | 0.00 | 0.00 | 46 | 1000.8 |
| 20260504213301 | 27 | 33 | 3.2 | 4.8 | 0.00 | 0.00 | 0.00 | 45 | 1000.5 |
| 20260504212759 | 27 | 225 | 4.8 | 4.8 | 0.00 | 0.00 | 0.00 | 44 | 1000.6 |
| 20260504212254 | 27 | 226 | 1.6 | 1.6 | 0.00 | 0.00 | 0.00 | 45 | 1000.9 |
| 20260504211752 | 27 | 125 | 1.6 | 1.6 | 0.00 | 0.00 | 0.00 | 45 | 1000.7 |
| 20260504211248 | 27 | 199 | 3.2 | 8.0 | 0.00 | 0.00 | 0.00 | 45 | 1000.9 |
| 20260504210746 | 27 | 302 | 1.6 | 3.2 | 0.00 | 0.00 | 0.00 | 44 | 1000.7 |
| 20260504210243 | 28 | 217 | 4.8 | 4.8 | 0.00 | 0.00 | 0.00 | 43 | 1000.7 |
| 20260504205739 | 27 | 1 | 4.8 | 4.8 | 0.00 | 0.00 | 0.00 | 44 | 1000.9 |
| 20260504205238 | 27 | 116 | 4.8 | 4.8 | 0.00 | 0.00 | 0.00 | 46 | 1000.9 |
| 20260504204736 | 27 | 217 | 4.8 | 8.0 | 0.00 | 0.00 | 0.00 | 45 | 1000.9 |
| 20260504204233 | 28 | 75 | 1.6 | 3.2 | 0.00 | 0.00 | 0.00 | 44 | 1001.1 |
| 20260504203733 | 28 | 228 | 4.8 | 4.8 | 0.00 | 0.00 | 0.00 | 43 | 1000.8 |
| 20260504203230 | 28 | 248 | 1.6 | 4.8 | 0.00 | 0.00 | 0.00 | 42 | 1001.1 |
| 20260504202729 | 28 | 259 | 1.6 | 1.6 | 0.00 | 0.00 | 0.00 | 41 | 1000.9 |
| 20260504202227 | 28 | 84 | 1.6 | 1.6 | 0.00 | 0.00 | 0.00 | 43 | 1001.0 |
| 20260504201724 | 28 | 273 | 0.0 | 1.6 | 0.00 | 0.00 | 0.00 | 44 | 1001.0 |
| 20260504201221 | 28 | 229 | 3.2 | 4.8 | 0.00 | 0.00 | 0.00 | 44 | 1001.0 |
| 20260504200719 | 28 | 328 | 4.8 | 4.8 | 0.00 | 0.00 | 0.00 | 44 | 1001.0 |
| 20260504200214 | 28 | 216 | 3.2 | 3.2 | 0.00 | 0.00 | 0.00 | 44 | 1001.1 |
| 20260504195711 | 28 | 103 | 6.4 | 9.7 | 0.00 | 0.00 | 0.00 | 45 | 1001.0 |
| 20260504195207 | 28 | 307 | 1.6 | 1.6 | 0.00 | 0.00 | 0.00 | 44 | 1001.3 |
| 20260504194704 | 29 | 186 | 4.8 | 8.0 | 0.00 | 0.00 | 0.00 | 42 | 1001.1 |
| 20260504194200 | 28 | 332 | 1.6 | 1.6 | 0.00 | 0.00 | 0.00 | 45 | 1001.0 |
| 20260504193657 | 28 | 213 | 3.2 | 3.2 | 0.00 | 0.00 | 0.00 | 44 | 1001.0 |
| 20260504193155 | 28 | 347 | 0.0 | 0.0 | 0.00 | 0.00 | 0.00 | 42 | 1001.0 |
| 20260504192652 | 28 | 5 | 3.2 | 3.2 | 0.00 | 0.00 | 0.00 | 42 | 1001.1 |
| 20260504192150 | 27 | 265 | 1.6 | 1.6 | 0.00 | 0.00 | 0.00 | 43 | 1001.2 |
| 20260504191648 | 27 | 355 | 0.0 | 0.0 | 0.00 | 0.00 | 0.00 | 46 | 1001.3 |
| 20260504191144 | 28 | 11 | 4.8 | 9.7 | 0.00 | 0.00 | 0.00 | 44 | 1001.3 |
| 20260504190640 | 27 | 51 | 1.6 | 1.6 | 0.00 | 0.00 | 0.00 | 45 | 1001.1 |
| 20260504190137 | 27 | 258 | 0.0 | 1.6 | 0.00 | 0.00 | 0.00 | 43 | 1001.7 |
| 20260504185634 | 27 | 219 | 1.6 | 1.6 | 0.00 | 0.00 | 0.00 | 42 | 1001.5 |
| 20260504185130 | 27 | 352 | 1.6 | 1.6 | 0.00 | 0.00 | 0.00 | 43 | 1001.3 |
| 20260504184626 | 27 | 249 | 4.8 | 8.0 | 0.00 | 0.00 | 0.00 | 44 | 1001.4 |
| 20260504184121 | 27 | 296 | 4.8 | 4.8 | 0.00 | 0.00 | 0.00 | 44 | 1001.5 |
| 20260504183619 | 27 | 60 | 0.0 | 1.6 | 0.00 | 0.00 | 0.00 | 43 | 1001.5 |
| 20260504183116 | 27 | 81 | 0.0 | 1.6 | 0.00 | 0.00 | 0.00 | 44 | 1001.6 |
| 20260504182614 | 27 | 35 | 1.6 | 1.6 | 0.00 | 0.00 | 0.00 | 44 | 1001.6 |
| 20260504182111 | 26 | 214 | 3.2 | 4.8 | 0.00 | 0.00 | 0.00 | 44 | 1001.6 |
| 20260504181608 | 27 | 266 | 4.8 | 4.8 | 0.00 | 0.00 | 0.00 | 46 | 1001.8 |
| 20260504181106 | 27 | 269 | 6.4 | 9.7 | 0.00 | 0.00 | 0.00 | 45 | 1001.5 |
| 20260504180605 | 26 | 226 | 1.6 | 3.2 | 0.00 | 0.00 | 0.00 | 45 | 1001.8 |
| 20260504180104 | 26 | 227 | 4.8 | 8.0 | 0.00 | 0.00 | 0.00 | 45 | 1001.7 |
| 20260504175600 | 26 | 0 | 3.2 | 4.8 | 0.00 | 0.00 | 0.00 | 47 | 1002.0 |
| 20260504175057 | 26 | 219 | 3.2 | 4.8 | 0.00 | 0.00 | 0.00 | 45 | 1001.8 |
| 20260504174555 | 26 | 253 | 3.2 | 3.2 | 0.00 | 0.00 | 0.00 | 45 | 1001.7 |
| 20260504174051 | 26 | 247 | 4.8 | 8.0 | 0.00 | 0.00 | 0.00 | 45 | 1001.7 |
| 20260504173548 | 26 | 129 | 3.2 | 3.2 | 0.00 | 0.00 | 0.00 | 46 | 1001.8 |
| 20260504173046 | 26 | 33 | 1.6 | 1.6 | 0.00 | 0.00 | 0.00 | 45 | 1001.9 |
| 20260504172542 | 26 | 138 | 4.8 | 4.8 | 0.00 | 0.00 | 0.00 | 46 | 1001.9 |
| 20260504172038 | 26 | 145 | 3.2 | 4.8 | 0.00 | 0.00 | 0.00 | 45 | 1002.1 |
| 20260504171535 | 25 | 247 | 1.6 | 1.6 | 0.00 | 0.00 | 0.00 | 46 | 1002.1 |
| 20260504171032 | 25 | 312 | 1.6 | 1.6 | 0.00 | 0.00 | 0.00 | 47 | 1002.3 |
| 20260504170528 | 25 | 215 | 4.8 | 4.8 | 0.00 | 0.00 | 0.00 | 46 | 1002.2 |
| 20260504150912 | 22 | 233 | 6.4 | 9.7 | 0.00 | 0.00 | 0.00 | 51 | 1002.7 |
| 20260504150409 | 21 | 121 | 4.8 | 8.0 | 0.00 | 0.00 | 0.00 | 52 | 1002.6 |
| 20260504140835 | 19 | 113 | 4.8 | 4.8 | 0.00 | 0.00 | 0.00 | 57 | 1002.7 |
| 20260504140331 | 19 | 238 | 1.6 | 3.2 | 0.00 | 0.00 | 0.00 | 56 | 1002.8 |
| 20260504130800 | 18 | 166 | 4.8 | 4.8 | 0.00 | 0.00 | 0.00 | 58 | 1002.7 |
| 20260504130256 | 18 | 211 | 4.8 | 8.0 | 0.00 | 0.00 | 0.00 | 58 | 1002.5 |
| 20260504120220 | 17 | 214 | 1.6 | 1.6 | 0.00 | 0.00 | 0.00 | 58 | 1003.0 |
| 20260504110641 | 18 | 354 | 1.6 | 1.6 | 0.00 | 0.00 | 0.00 | 56 | 1003.1 |
| 20260504110137 | 18 | 93 | 1.6 | 1.6 | 0.00 | 0.00 | 0.00 | 56 | 1003.1 |
| 20260504100557 | 18 | 57 | 0.0 | 1.6 | 0.00 | 0.00 | 0.00 | 53 | 1003.5 |
| 20260504081951 | 19 | 248 | 3.2 | 4.8 | 0.00 | 0.00 | 0.00 | 52 | 1003.6 |
| 20260504081448 | 18 | 213 | 1.6 | 3.2 | 0.00 | 0.00 | 0.00 | 52 | 1003.9 |
| 20260504080944 | 18 | 1 | 0.0 | 1.6 | 0.00 | 0.00 | 0.00 | 52 | 1004.2 |
| 20260504080441 | 18 | 137 | 1.6 | 3.2 | 0.00 | 0.00 | 0.00 | 53 | 1004.1 |
| 20260504070409 | 18 | 58 | 0.0 | 1.6 | 0.00 | 0.00 | 0.00 | 52 | 1004.8 |